DW6942 Weather Reports


time (UTC)temp
F
wind
direction
speed
knots
gust
knots
rain 1hr
in
rain 24hr
in
rain mn
in
humidity
%
barometer
mb
20260502151606 0 0.0 0.0 0.00 0.00 0.00 1022.8
20260502123007 0 0.0 0.0 0.00 0.00 0.00 1021.1
20260502121503 0 0.0 0.0 0.00 0.00 0.00 1020.8
20260502114556 0 0.0 0.0 0.00 0.00 0.00 1020.6
20260502113049 0 0.0 0.0 0.00 0.00 0.00 1020.4
20260502111555 0 0.0 0.0 0.00 0.00 0.00 1020.4
20260502110047 0 0.0 0.0 0.00 0.00 0.00 1019.9
20260502104543 0 0.0 0.0 0.00 0.00 0.00 1020.0
20260502103041 0 0.0 0.0 0.00 0.00 0.00 1019.8
20260502101528 0 0.0 0.0 0.00 0.00 0.00 1019.6
20260502091509 0 0.0 0.0 0.00 0.16 0.00 1018.6
20260502080103 0 0.0 0.0 0.00 0.34 0.00 1018.0
20260502071535 0 0.0 0.0 0.00 0.36 0.00 1018.2
20260502070033 0 0.0 0.0 0.00 0.36 0.00 1018.4
20260502064530 0 0.0 0.0 0.00 0.39 0.00 1018.2
20260502063022 0 0.0 0.0 0.00 0.39 0.00 1018.1
20260502061517 0 0.0 0.0 0.00 0.39 0.00 1018.0
20260502060014 0 0.0 0.0 0.00 0.39 0.00 1018.0
20260502054508 0 0.0 0.0 0.00 0.50 0.00 1017.9
20260502053005 0 0.0 0.0 0.00 0.50 0.00 1018.1
20260502051604 0 0.0 0.0 0.00 0.50 0.00 1018.0
20260502050059 0 0.0 0.0 0.00 0.50 0.00 1018.0
20260502044551 0 0.0 0.0 0.00 0.52 0.50 1017.9
20260502043051 0 0.0 0.0 0.00 0.52 0.50 1017.7
20260502041543 0 0.0 0.0 0.00 0.52 0.50 1017.6
20260502040039 0 0.0 0.0 0.00 0.52 0.50 1017.8
20260502034536 0 0.0 0.0 0.00 0.52 0.50 1017.9
20260502033031 0 0.0 0.0 0.00 0.52 0.50 1017.7
20260502031525 0 0.0 0.0 0.00 0.52 0.50 1017.4
20260502030021 0 0.0 0.0 0.00 0.52 0.50 1017.1
20260502024516 0 0.0 0.0 0.00 0.52 0.50 1016.6
20260502023015 0 0.0 0.0 0.00 0.52 0.50 1016.2
20260502021515 0 0.0 0.0 0.00 0.52 0.50 1016.1
20260502020017 0 0.0 0.0 0.00 0.52 0.50 1016.2
20260502014506 0 0.0 0.0 0.00 0.52 0.50 1015.7
20260502013002 0 0.0 0.0 0.00 0.52 0.50 1015.3
20260502011610 0 0.0 0.0 0.00 0.52 0.50 1016.0
20260502010055 0 0.0 0.0 0.00 0.52 0.50 1015.5
20260502004600 0 0.0 0.0 0.00 0.52 0.50 1014.3
20260502003045 0 0.0 0.0 0.00 0.52 0.50 1014.8
20260502001541 0 0.0 0.0 0.00 0.52 0.50 1014.9
20260502000036 0 0.0 0.0 0.00 0.52 0.50 1014.5
20260501234537 0 0.0 0.0 0.00 0.52 0.50 1014.7
20260501233028 0 0.0 0.0 0.00 0.52 0.50 1014.0
20260501231535 0 0.0 0.0 0.00 0.52 0.50 1013.2
20260501230023 0 0.0 0.0 0.00 0.52 0.50 1013.1
20260501224513 0 0.0 0.0 0.00 0.52 0.50 1012.1
20260501223009 0 0.0 0.0 0.00 0.52 0.50 1011.7
20260501221506 0 0.0 0.0 0.00 0.52 0.50 1012.2
20260501220001 0 0.0 0.0 0.00 0.52 0.50 1013.0
20260501214557 0 0.0 0.0 0.00 0.52 0.50 1013.4
20260501213053 0 0.0 0.0 0.00 0.52 0.50 1013.2
20260501211548 0 0.0 0.0 0.00 0.52 0.50 1013.2
20260501210045 0 0.0 0.0 0.00 0.52 0.50 1011.8
20260501204539 0 0.0 0.0 0.00 0.52 0.50 1012.2
20260501203034 0 0.0 0.0 0.00 0.52 0.50 1011.9
20260501201531 0 0.0 0.0 0.00 0.52 0.50 1011.4
20260501200028 0 0.0 0.0 0.00 0.52 0.50 1012.0
20260501194521 0 0.0 0.0 0.00 0.52 0.50 1012.4
20260501193032 0 0.0 0.0 0.00 0.52 0.50 1012.0
20260501191516 0 0.0 0.0 0.00 0.52 0.50 1012.2
20260501190028 0 0.0 0.0 0.00 0.52 0.50 1011.3
20260501184504 0 0.0 0.0 0.00 0.52 0.50 1011.6
20260501183105 0 0.0 0.0 0.00 0.52 0.50 1011.0
20260501181555 0 0.0 0.0 0.00 0.52 0.50 1009.4
20260501180052 0 0.0 0.0 0.00 0.52 0.50 1009.6
20260501174548 0 0.0 0.0 0.00 0.52 0.50 1011.8
20260501173042 0 0.0 0.0 0.00 0.52 0.50 1012.7
20260501171538 0 0.0 0.0 0.00 0.52 0.50 1012.9
20260501170036 0 0.0 0.0 0.00 0.52 0.50 1012.9
20260501164531 0 0.0 0.0 0.00 0.52 0.50 1013.4
20260501163024 0 0.0 0.0 0.00 0.52 0.50 1013.9
20260501161521 0 0.0 0.0 0.00 0.52 0.50 1014.6
20260501160015 0 0.0 0.0 0.00 0.52 0.50 1014.7
20260501154515 0 0.0 0.0 0.00 0.52 0.50 1015.1